TimeEST,TemperatureF,Dew PointF,Humidity,Sea Level PressureIn,VisibilityMPH,Wind Direction,Wind SpeedMPH,Gust SpeedMPH,PrecipitationIn,Events,Conditions,WindDirDegrees,DateUTC
12:54 AM,39.0,37.0,93,29.95,10.0,North,3.5,-,N/A,,Clear,350,2009-11-26 05:54:00
1:54 AM,36.0,35.1,97,29.94,10.0,NNW,3.5,-,N/A,,Clear,330,2009-11-26 06:54:00
2:54 AM,36.0,34.0,93,29.93,7.0,Calm,Calm,-,N/A,,Clear,0,2009-11-26 07:54:00
3:06 AM,33.8,33.8,100,29.94,1.8,Calm,Calm,-,N/A,,Clear,0,2009-11-26 08:06:00
3:17 AM,33.8,33.8,100,29.94,3.0,Calm,Calm,-,N/A,,Clear,0,2009-11-26 08:17:00
3:25 AM,32.0,32.0,100,29.93,1.5,Calm,Calm,-,N/A,,Clear,0,2009-11-26 08:25:00
3:29 AM,32.0,32.0,100,29.93,0.8,Calm,Calm,-,N/A,,Clear,0,2009-11-26 08:29:00
3:36 AM,32.0,32.0,100,29.93,1.5,Calm,Calm,-,N/A,,Clear,0,2009-11-26 08:36:00
3:39 AM,33.8,32.0,93,29.93,4.0,Calm,Calm,-,N/A,,Clear,0,2009-11-26 08:39:00
3:47 AM,32.0,30.2,93,29.93,1.8,SSE,3.5,-,N/A,,Clear,160,2009-11-26 08:47:00
3:51 AM,32.0,30.2,93,29.93,0.8,Calm,Calm,-,N/A,,Clear,0,2009-11-26 08:51:00
3:54 AM,32.0,30.9,96,29.92,0.8,Calm,Calm,-,N/A,,Clear,0,2009-11-26 08:54:00
4:14 AM,32.0,32.0,100,29.93,1.5,Calm,Calm,-,N/A,,Clear,0,2009-11-26 09:14:00
4:16 AM,32.0,32.0,100,29.93,3.0,Calm,Calm,-,N/A,,Clear,0,2009-11-26 09:16:00
4:54 AM,30.9,30.0,96,29.93,10.0,Calm,Calm,-,N/A,,Clear,0,2009-11-26 09:54:00
5:54 AM,30.9,30.0,96,29.92,10.0,Calm,Calm,-,N/A,,Clear,0,2009-11-26 10:54:00
6:54 AM,39.0,34.0,82,29.92,10.0,North,5.8,-,N/A,,Clear,350,2009-11-26 11:54:00
7:54 AM,39.9,34.0,79,29.93,10.0,North,5.8,-,N/A,,Clear,350,2009-11-26 12:54:00
8:54 AM,42.1,35.1,76,29.93,10.0,North,6.9,-,N/A,,Clear,360,2009-11-26 13:54:00
9:54 AM,46.0,37.0,71,29.93,10.0,NNW,15.0,19.6,N/A,,Clear,340,2009-11-26 14:54:00
10:54 AM,48.9,35.1,59,29.90,10.0,North,8.1,-,N/A,,Clear,360,2009-11-26 15:54:00
11:54 AM,51.1,33.1,50,29.86,10.0,North,8.1,-,N/A,,Clear,350,2009-11-26 16:54:00
12:54 PM,51.1,30.0,44,29.83,10.0,NNW,6.9,-,N/A,,Partly Cloudy,340,2009-11-26 17:54:00
1:54 PM,51.1,27.0,39,29.80,10.0,NNW,6.9,-,N/A,,Overcast,340,2009-11-26 18:54:00
2:54 PM,50.0,26.1,39,29.80,10.0,North,12.7,-,N/A,,Overcast,350,2009-11-26 19:54:00
3:54 PM,46.0,28.9,51,29.83,10.0,NNW,20.7,28.8,N/A,,Mostly Cloudy,340,2009-11-26 20:54:00
4:54 PM,45.0,30.0,56,29.85,10.0,NNW,12.7,20.7,0.00,Rain,Light Rain,340,2009-11-26 21:54:00
5:54 PM,42.1,24.1,49,29.86,10.0,NW,13.8,-,0.00,,Partly Cloudy,320,2009-11-26 22:54:00
6:54 PM,39.9,21.9,49,29.88,10.0,NNW,16.1,28.8,N/A,,Clear,340,2009-11-26 23:54:00
7:54 PM,37.9,21.9,53,29.89,10.0,NW,19.6,31.1,N/A,,Clear,320,2009-11-27 00:54:00
8:54 PM,37.9,23.0,55,29.91,10.0,NNW,21.9,28.8,N/A,,Overcast,330,2009-11-27 01:54:00
9:54 PM,37.0,23.0,57,29.91,10.0,NNW,21.9,32.2,N/A,,Mostly Cloudy,340,2009-11-27 02:54:00
10:54 PM,36.0,24.1,62,29.88,10.0,NNW,26.5,32.2,N/A,,Mostly Cloudy,330,2009-11-27 03:54:00
11:54 PM,36.0,25.0,64,29.87,10.0,NNW,24.2,34.5,N/A,,Clear,330,2009-11-27 04:54:00